Weather Roundup
Issued by NWS

Home | Current Version | Previous Version | Graphics & Text | Print | Product List | Glossary Off
Versions: 1 2 3 4 5 6 7 8 9 10 11 12 13 14 15 16 17 18 19 20 21 22 23 24 25 26 27 28 29 30 31 32 33 34 35 36 37 38 39 40 41 42 43 44 45 46 47 48 49 50

000
NZUS93 KARX 220510
HRRWXR

CURRENT HOURLY OBSERVATIONS ACROSS
MUCH OF THE UPPER MISSISSIPPI VALLEY
NATIONAL WEATHER SERVICE LA CROSSE WI
1100 PM CST FRI NOV 21 2014


...SOUTHEAST MINNESOTA...


CITY           SKY/WX    TMP DP  RH WIND       PRES   REMARKS
ROCHESTER      CLOUDY    31  25  78 S18G29    29.95S WCI  19
ROCHESTER/MAYO CLOUDY    32  25  74 S16G25    29.95S WCI  21
WINONA         CLOUDY    34  27  75 S8G16     29.99F WCI  27
AUSTIN         CLOUDY    30  27  86 S17G23    29.96R WCI  18
ALBERT LEA     CLOUDY    34  28  80 S14G21    29.94S WCI  24
DODGE CENTER   CLOUDY    32  28  86 S17       29.92F WCI  21
PRESTON        CLOUDY    30  23  75 S20G25    29.96S WCI  17
OWATONNA       CLOUDY    34  28  80 S18G25    29.91F WCI  23
FARIBAULT      CLOUDY    34  28  80 S13G25    29.91S WCI  25
$$

...ELSEWHERE IN MINNESOTA...


CITY           SKY/WX    TMP DP  RH WIND       PRES   REMARKS
MINNEAPOLIS    MOCLDY    32  27  81 S13       29.89F WCI  22
INTNL FALLS    CLEAR     28  22  78 SW12G17   29.59S WCI  18
DULUTH         CLOUDY    28  21  75 SW18G29   29.72F WCI  15
RED WING       CLOUDY    34  27  75 S8        29.94S WCI  27
REDWOOD FALLS  CLEAR     33  27  78 SW9       29.85R WCI  25
MANKATO        CLOUDY    34  28  80 S17       29.89S WCI  23
WORTHINGTON    PTCLDY    32  28  86 SW25G31   29.86F WCI  19
FAIRMONT       CLOUDY    34  30  86 S15       29.90F WCI  24
$$

...SOUTHWEST WISCONSIN...


CITY           SKY/WX    TMP DP  RH WIND       PRES   REMARKS
LA CROSSE      CLOUDY    34  22  61 S12       30.00F WCI  25
PRAIRIE DU CHI CLOUDY    34  17  50 SE6       30.07F WCI  28
BOSCOBEL       CLOUDY    34  16  47 S8G20     30.09F WCI  27
LONE ROCK      CLOUDY    37  16  42 S8        30.08F WCI  31
PLATTEVILLE    CLOUDY    31  22  70 S9        30.09F WCI  23
FORT MC COY    CLOUDY    32  20  60 S14       30.01F WCI  22
CAMP DOUGLAS   CLOUDY    32  20  62 S13G21    30.01F WCI  22
VIROQUA        CLOUDY    31  21  66 S13G20    30.02S WCI  21
WIS DELLS      CLOUDY    32  17  55 SW17      30.04F WCI  21
$$

...ELSEWHERE IN WISCONSIN...


CITY           SKY/WX    TMP DP  RH WIND       PRES   REMARKS
MILWAUKEE      CLOUDY    32  10  40 S16       30.13F WCI  21
MADISON        CLOUDY    32  13  45 S15G22    30.10F WCI  22
GREEN BAY      CLOUDY    30  14  51 S15G22    30.03F WCI  19
EAU CLAIRE     CLOUDY    31  23  72 SW13      29.93F WCI  21
BLACK RVR FLS  CLOUDY    32  19  59 S7        29.99R WCI  26
MEDFORD        CLOUDY    26  17  70 S14G20    29.91F WCI  14
WAUSAU         CLOUDY    27  14  58 S13       29.95S WCI  16
WIS RAPIDS     CLOUDY    30  14  51 S15       30.00F WCI  19
MARSHFIELD     CLOUDY    29  17  61 SW12      29.95F WCI  19
RICE LAKE      CLOUDY    29  23  79 S10G16    29.90F WCI  20
$$

...NORTHEAST IOWA...


CITY           SKY/WX    TMP DP  RH WIND       PRES   REMARKS
DECORAH        CLOUDY    32  23  69 S12G22    30.00F WCI  23
MASON CITY     CLOUDY    33  28  81 S15       29.98S WCI  23
CHARLES CITY   CLOUDY    32  25  74 S15G22    30.00F WCI  22
OELWEIN        CLOUDY    32  25  74 S14       30.05F WCI  22
$$

...ELSEWHERE IN IOWA...


CITY           SKY/WX    TMP DP  RH WIND       PRES   REMARKS
DES MOINES     CLOUDY    38  30  73 S13       30.04F WCI  30
IOWA CITY      LGT RAIN  33  28  81 SE7       30.11F WCI  27
FORT DODGE     CLOUDY    34  30  86 S15G21    29.97F WCI  24
$$

...NORTHERN ILLINOIS...


CITY           SKY/WX    TMP DP  RH WIND       PRES   REMARKS
CHICAGO-OHARE  CLOUDY    33  10  38 S14       30.18F WCI  23
CHICAGO-MIDWAY CLOUDY    35  11  36 S10       30.20F WCI  27
MOLINE         CLOUDY    37  20  50 S10       30.11F WCI  30
ROCKFORD       CLOUDY    33  14  45 S16       30.17F WCI  23
PEORIA         FRZ RAIN  34  26  72 S16       30.18F WCI  24
$$

NOTE: "FAIR" INDICATES FEW OR NO CLOUDS BELOW 12,000 FEET WITH NO
SIGNIFICANT WEATHER AND/OR OBSTRUCTIONS TO VISIBILITY. WIND
SPEEDS ARE IN MILES-PER-HOUR.



USA.gov is the U.S. government's official web portal to all federal, state and local government web resources and services.